Wind_Speed
37 37 37 37 37 37 33 29 27 26 27 26 25 24 23 22 21 20 19 18 18 17 17 17 16 16 16 15 15 14 14 13 13 13 13 13 13 13 13 12 12 12 12 12 12 12 12 12 13
39 39 39 40 40 38 34 30 28 28 28 28 27 26 25 24 23 22 21 20 19 19 18 18 18 17 17 17 17 16 16 15 15 15 15 15 15 15 14 14 13 13 13 13 13 13 13 14 14
40 41 41 42 41 38 34 31 30 30 30 30 29 28 27 25 24 23 23 22 21 21 20 19 19 19 18 18 18 18 17 17 17 16 16 16 16 16 16 15 15 15 15 15 15 15 15 16 16
42 42 43 44 42 38 35 33 33 32 32 31 31 30 28 27 26 25 24 23 23 22 21 21 21 20 20 20 19 19 19 18 18 18 18 18 18 17 17 18 17 17 17 17 17 17 17 18 18
44 44 45 44 41 38 36 35 35 34 34 33 32 31 29 28 28 27 26 25 24 24 23 23 22 22 21 21 21 20 20 20 19 19 19 19 19 19 19 19 19 19 19 19 19 19 19 20 20
46 46 46 43 40 38 37 37 36 36 36 35 34 33 31 30 29 28 28 27 26 25 25 24 24 23 23 22 22 22 22 21 20 20 20 20 20 20 20 20 20 20 20 20 20 20 21 21 22
47 47 46 43 40 39 38 38 37 37 37 37 36 35 33 31 31 30 29 29 28 27 26 25 25 24 24 23 23 23 23 22 22 21 21 20 20 20 21 21 21 21 21 21 22 22 22 22 23
47 48 47 45 42 40 39 39 38 38 38 38 38 36 35 33 32 31 31 30 29 28 28 27 26 25 25 25 25 24 24 23 23 22 21 21 21 21 21 21 22 22 22 22 23 23 23 24 24
49 49 48 45 43 42 40 40 40 40 39 39 38 37 36 35 34 33 32 31 30 30 29 28 28 27 26 26 26 25 25 24 24 23 22 22 22 22 22 22 23 23 23 23 24 24 24 25 25
51 51 47 46 44 43 42 42 41 41 41 40 39 38 37 37 36 35 34 32 31 31 30 30 29 29 28 27 27 26 25 25 24 24 23 23 23 23 23 23 23 23 24 24 24 25 25 25 25
50 49 47 46 45 44 44 43 43 42 42 41 40 39 39 38 37 36 35 34 33 33 32 31 31 30 29 29 28 27 27 26 26 25 25 25 25 25 25 24 24 24 25 25 25 26 26 26 26
49 48 47 46 46 45 45 44 44 43 42 42 41 41 40 39 38 38 37 36 36 34 34 33 32 31 31 30 29 28 28 27 27 26 26 26 26 25 25 25 25 25 26 26 26 27 27 27 27
49 47 47 47 47 47 46 45 45 44 43 43 42 42 41 40 40 39 39 38 37 36 35 34 33 33 32 31 30 30 29 29 28 28 27 27 27 26 26 27 26 27 27 27 27 28 28 28 29
49 49 48 48 48 48 48 47 46 44 44 44 43 42 41 41 41 41 40 39 38 37 36 35 34 34 33 32 31 31 30 30 29 29 29 28 28 28 28 28 28 28 28 28 29 29 29 30 30
50 50 50 49 49 48 48 48 46 45 46 45 44 43 42 41 41 41 41 40 39 38 37 36 35 34 34 33 33 32 32 31 31 30 30 29 29 29 29 29 30 30 30 30 30 30 31 31 32
51 51 51 50 49 49 49 48 46 47 47 46 45 45 44 43 42 42 42 41 40 39 38 37 36 35 35 34 34 33 33 33 32 32 31 31 31 30 30 30 31 31 32 31 32 32 32 32 33
52 51 50 50 50 50 50 49 47 47 47 47 46 45 44 43 43 42 42 42 42 41 39 38 37 37 36 35 35 34 34 33 33 33 32 32 32 31 32 31 32 32 32 32 33 33 33 34 34
51 50 50 50 50 50 50 49 48 48 48 47 47 46 45 44 44 43 43 43 43 42 41 39 38 37 37 36 35 35 34 34 34 33 33 33 32 32 32 32 32 33 33 33 34 34 35 35 35
50 51 51 51 51 52 51 50 49 49 48 47 47 46 46 45 45 45 44 44 43 43 41 40 39 38 37 36 36 35 35 34 34 34 33 33 33 34 33 33 34 35 35 35 35 36 36 36 36
50 51 51 52 52 53 52 52 50 50 48 47 47 46 46 46 46 45 45 44 44 43 42 41 40 39 38 37 37 36 36 35 35 35 35 35 35 35 35 35 36 36 36 37 37 37 38 38 38
48 50 50 50 51 53 53 53 52 51 50 49 48 47 47 47 47 46 46 45 44 43 42 42 41 40 39 38 38 37 37 36 36 35 36 36 36 36 36 37 37 37 37 38 38 38 38 38 38
46 48 49 50 51 52 53 54 52 51 51 50 49 48 48 48 47 47 46 45 44 44 43 43 42 41 41 40 39 38 38 37 37 36 36 36 36 37 38 37 37 37 38 38 38 39 39 39 39
42 44 46 48 50 52 53 54 53 51 51 51 50 49 48 48 48 47 47 46 46 45 44 43 43 42 41 40 40 39 39 38 38 38 37 37 37 38 38 38 38 38 38 39 39 39 40 40 41
41 41 42 45 47 51 51 53 54 52 50 50 50 49 48 48 48 47 47 47 46 46 44 44 43 43 42 41 41 40 40 39 39 38 38 38 38 38 38 38 39 39 39 39 40 40 40 41 41
40 41 40 42 45 48 48 50 51 50 49 49 49 49 48 47 47 47 47 46 46 46 45 44 44 43 42 42 41 41 40 40 39 39 39 39 39 39 39 39 39 39 39 40 40 40 40 41 42
38 39 40 41 43 44 45 48 48 47 47 48 49 49 49 48 47 47 46 46 46 46 45 45 44 43 43 42 42 41 41 41 40 40 39 39 39 40 40 40 40 39 40 40 40 40 41 42 43
34 36 37 38 40 41 43 45 45 46 46 46 47 47 48 47 47 46 46 46 46 46 45 45 44 43 43 43 42 42 41 41 40 40 40 40 40 40 40 40 40 40 40 40 40 41 42 43 43
34 33 34 34 36 38 40 42 43 42 42 44 45 45 46 47 47 47 46 46 46 46 45 45 44 44 43 43 42 42 42 41 41 40 40 41 40 40 40 40 40 40 40 40 41 42 43 44 44
34 33 34 33 34 35 37 39 39 40 40 41 42 43 44 45 46 46 46 45 45 45 45 44 44 44 44 43 42 42 42 41 41 41 41 41 40 41 40 40 40 40 41 41 42 42 43 44 44
33 32 33 34 33 33 33 35 35 36 37 39 40 40 41 42 43 44 45 45 45 44 44 44 44 44 43 43 43 43 42 41 41 41 41 41 41 40 40 40 40 40 41 41 42 43 43 44 44
Wind_Direction
235 235 236 236 237 237 238 238 237 236 235 234 234 235 235 235 235 237 237 236 238 238 239 241 242 242 243 244 245 246 247 249 252 254 255 259 262 266 267 266 267 268 269 272 274 278 279 280 282
235 236 236 236 237 238 237 237 237 236 236 235 235 234 234 235 235 236 237 237 238 239 240 242 243 244 245 246 247 248 249 251 254 255 258 260 262 264 265 265 268 269 270 271 273 276 278 280 281
236 236 236 237 237 238 238 236 236 236 236 236 235 234 234 235 236 236 237 237 239 239 240 242 243 245 246 247 248 249 251 253 254 256 259 261 263 264 265 266 267 269 270 272 273 275 277 279 282
236 236 236 237 237 237 237 235 235 236 236 236 236 235 235 235 235 236 237 238 239 240 241 243 244 246 247 248 249 250 251 253 255 257 260 262 263 264 265 266 268 269 271 272 273 275 277 279 281
236 236 236 237 237 236 236 235 234 235 235 235 236 236 235 234 234 235 237 238 239 241 242 243 245 246 248 249 250 251 252 254 256 258 260 263 264 265 265 266 267 269 271 272 274 276 277 278 280
236 236 237 236 236 235 235 235 234 234 234 234 235 236 235 234 234 235 236 237 238 240 241 243 245 246 248 249 250 251 252 254 256 258 260 263 265 266 267 268 269 270 271 272 274 276 277 279 280
235 236 237 236 235 234 234 234 234 233 233 234 235 235 235 234 234 235 236 237 238 239 240 242 244 245 247 248 249 251 252 254 255 257 259 262 264 266 268 269 270 271 272 273 274 276 277 279 279
234 236 236 235 233 233 232 233 233 233 233 233 233 234 234 234 234 235 236 236 237 239 240 242 243 245 246 248 249 251 253 254 255 256 258 260 263 266 268 269 271 272 273 274 275 276 277 278 279
233 234 235 235 234 232 232 232 233 233 233 233 233 234 234 234 234 235 236 236 237 239 241 242 243 245 246 248 249 251 253 253 254 255 257 259 262 265 267 270 271 272 274 275 276 277 278 279 280
232 234 234 234 233 232 231 232 232 232 232 232 232 233 233 233 234 234 235 236 237 238 240 242 243 245 246 248 249 250 252 253 253 255 257 260 262 264 267 270 272 273 274 276 277 279 280 281 281
234 234 233 233 232 231 230 231 231 231 231 232 232 232 232 232 232 233 234 236 237 238 240 241 243 245 246 247 249 250 251 252 253 255 258 260 262 265 267 268 271 273 275 276 278 279 280 281 282
234 233 233 232 231 230 230 230 230 230 231 231 231 231 231 231 232 233 234 235 236 238 239 241 243 245 246 247 248 249 250 252 254 255 258 261 263 265 267 268 270 272 275 277 278 279 279 281 282
233 232 232 232 231 230 229 229 230 229 230 231 231 231 231 231 232 233 234 235 237 238 240 241 242 244 245 246 247 249 250 252 254 256 258 260 262 264 266 269 271 272 274 276 278 279 280 281 282
233 231 231 231 230 230 229 228 229 229 230 231 231 231 231 231 232 233 234 236 237 239 240 241 242 243 244 245 247 249 250 252 254 256 258 260 262 265 267 269 272 273 275 276 277 278 280 281 282
232 231 230 229 230 230 229 228 228 229 230 231 231 231 231 231 232 233 234 235 237 238 239 240 242 243 244 245 246 248 251 253 255 257 258 260 263 265 267 269 272 273 275 276 276 278 280 281 282
231 231 230 229 230 230 230 229 228 229 230 230 231 231 231 231 232 233 234 235 236 238 238 240 241 242 243 245 246 248 251 253 255 256 258 260 263 265 268 270 272 274 275 276 277 278 280 281 282
230 231 231 230 230 231 231 230 228 229 230 230 231 231 231 231 232 233 234 235 236 237 238 240 240 241 243 245 247 249 251 253 255 256 258 260 263 265 268 270 273 274 275 276 278 280 281 282 282
232 232 232 232 231 231 232 232 230 230 231 231 231 231 232 232 232 233 234 236 237 237 238 239 240 241 243 244 246 249 251 252 254 256 258 260 263 266 268 271 273 275 276 277 279 281 282 282 283
232 232 232 232 232 232 232 232 231 230 231 231 231 232 232 233 233 234 235 236 237 238 239 239 240 241 243 245 246 248 250 252 254 256 259 261 264 266 268 271 274 275 276 277 279 281 282 283 283
231 232 232 232 232 233 233 232 231 230 231 231 232 232 232 233 233 234 235 236 237 238 239 240 241 241 243 244 246 248 250 252 255 257 260 263 265 267 269 272 274 275 276 277 278 280 281 282 283
230 231 232 234 234 234 234 233 232 231 231 231 232 232 232 233 233 234 235 236 236 237 238 240 241 242 243 244 245 247 249 252 255 258 260 263 265 267 269 272 273 274 276 277 279 280 281 282 283
230 230 232 233 234 234 233 234 232 232 232 232 232 233 233 233 234 234 235 236 236 237 239 240 241 243 244 245 246 248 250 252 255 257 260 263 266 267 270 272 273 275 276 278 279 280 281 282 283
228 230 233 234 235 236 234 235 232 232 232 232 232 232 233 233 234 234 235 235 236 237 238 240 241 242 243 245 247 248 250 252 255 258 260 263 266 268 270 272 274 275 277 278 279 280 281 282 283
227 230 233 235 237 238 235 235 234 233 232 232 232 232 232 233 233 234 235 235 236 237 238 239 240 241 243 245 247 249 251 253 255 258 261 264 266 268 271 272 274 275 277 278 279 280 281 283 284
226 228 231 234 236 238 236 236 236 234 232 232 232 231 232 232 232 233 234 235 236 236 237 238 240 241 243 245 248 249 251 253 256 259 261 264 267 269 271 272 274 275 277 278 279 281 282 283 284
227 229 232 236 237 239 238 238 236 235 233 232 233 232 232 232 232 233 234 235 236 236 237 238 239 241 243 245 247 249 252 254 256 259 261 264 266 269 270 272 274 275 277 278 280 281 282 284 285
226 228 231 236 239 241 240 239 238 236 235 233 233 233 232 232 232 233 234 235 235 236 237 238 239 241 242 244 246 249 252 254 256 258 261 263 266 268 270 271 273 275 277 278 280 282 283 284 286
227 228 231 235 238 241 241 240 238 237 237 235 234 234 234 233 232 232 233 234 234 235 237 238 239 241 242 244 246 249 251 253 255 258 261 263 265 267 269 272 273 274 276 278 280 282 283 285 286
225 228 231 233 235 238 242 241 237 237 235 235 234 233 234 234 233 233 234 234 234 235 236 238 239 240 242 244 246 249 251 253 255 258 260 263 265 267 269 271 273 274 276 278 280 282 284 286 287
228 229 230 231 234 236 240 241 238 237 235 233 232 231 231 232 233 233 234 235 235 235 237 238 239 241 243 245 247 249 250 252 255 258 260 263 265 268 269 271 272 274 277 279 281 283 284 286 287
Height
5820 5822 5825 5828 5830 5832 5836 5841 5844 5846 5848 5850 5851 5853 5856 5858 5860 5863 5863 5863 5864 5865 5866 5867 5868 5869 5870 5871 5871 5872 5872 5873 5873 5873 5874 5874 5874 5874 5874 5873 5873 5873 5872 5872 5872 5871 5871 5870 5870
5813 5816 5818 5820 5823 5827 5832 5836 5839 5841 5843 5845 5847 5849 5851 5853 5855 5857 5858 5859 5861 5862 5863 5864 5865 5866 5867 5868 5869 5869 5870 5871 5871 5871 5871 5871 5871 5871 5871 5871 5871 5871 5870 5870 5870 5869 5868 5868 5867
5805 5808 5811 5813 5816 5822 5827 5831 5834 5836 5837 5839 5842 5844 5846 5849 5851 5853 5854 5856 5857 5859 5860 5861 5862 5863 5864 5865 5866 5867 5867 5868 5868 5868 5869 5869 5869 5869 5869 5868 5868 5868 5868 5867 5867 5866 5866 5865 5864
5798 5800 5803 5807 5811 5817 5821 5825 5827 5829 5832 5834 5836 5839 5842 5845 5847 5849 5850 5852 5854 5855 5856 5858 5859 5860 5861 5862 5863 5864 5864 5865 5865 5865 5866 5866 5866 5866 5866 5866 5865 5865 5865 5864 5864 5863 5863 5862 5861
5789 5792 5795 5799 5805 5811 5814 5817 5820 5823 5826 5828 5831 5834 5837 5840 5842 5844 5846 5848 5849 5851 5852 5854 5855 5856 5857 5858 5859 5860 5861 5861 5862 5862 5862 5863 5863 5863 5862 5862 5862 5862 5862 5861 5861 5860 5859 5859 5858
5781 5784 5788 5793 5799 5804 5807 5810 5813 5816 5819 5822 5825 5828 5831 5834 5836 5839 5841 5843 5845 5847 5848 5850 5851 5852 5854 5855 5856 5856 5857 5858 5858 5859 5859 5859 5859 5859 5859 5859 5859 5858 5858 5858 5857 5856 5856 5855 5854
5772 5776 5780 5786 5791 5796 5800 5802 5806 5809 5812 5815 5818 5821 5825 5828 5831 5833 5836 5838 5840 5842 5844 5845 5847 5848 5849 5850 5852 5852 5853 5854 5854 5855 5855 5855 5856 5856 5855 5855 5855 5855 5854 5854 5853 5853 5852 5851 5850
5762 5767 5772 5778 5783 5788 5792 5794 5798 5801 5804 5808 5811 5815 5819 5822 5824 5827 5830 5832 5835 5837 5839 5840 5842 5843 5845 5846 5847 5848 5849 5850 5850 5851 5851 5852 5852 5852 5852 5851 5851 5851 5850 5850 5849 5848 5848 5847 5846
5752 5758 5763 5770 5775 5780 5783 5786 5790 5793 5797 5800 5804 5808 5812 5815 5818 5821 5824 5827 5829 5831 5833 5835 5837 5839 5840 5841 5843 5844 5845 5845 5846 5847 5847 5847 5848 5848 5847 5847 5847 5847 5846 5845 5845 5844 5843 5842 5841
5742 5748 5756 5762 5766 5771 5774 5778 5781 5785 5789 5793 5797 5801 5804 5808 5811 5814 5818 5821 5823 5826 5828 5830 5832 5833 5835 5836 5838 5839 5840 5841 5842 5842 5843 5843 5843 5843 5843 5843 5843 5842 5842 5841 5840 5839 5838 5837 5836
5733 5741 5747 5751 5756 5761 5765 5769 5773 5777 5781 5786 5790 5793 5797 5801 5804 5807 5811 5814 5816 5819 5822 5824 5826 5828 5829 5831 5832 5834 5835 5836 5837 5838 5838 5838 5839 5839 5839 5838 5838 5838 5837 5836 5835 5834 5833 5832 5831
5725 5731 5736 5741 5746 5751 5755 5760 5764 5769 5774 5778 5781 5785 5789 5793 5797 5800 5803 5806 5809 5812 5815 5818 5820 5822 5824 5825 5827 5828 5830 5831 5832 5833 5833 5834 5834 5834 5834 5833 5833 5832 5832 5831 5830 5829 5828 5827 5826
5715 5721 5726 5731 5735 5740 5746 5751 5755 5761 5765 5769 5773 5777 5782 5785 5789 5792 5795 5799 5802 5806 5809 5811 5813 5816 5818 5819 5821 5823 5824 5825 5826 5827 5828 5828 5829 5829 5829 5828 5828 5827 5827 5826 5825 5824 5823 5821 5820
5705 5710 5715 5720 5725 5730 5736 5741 5746 5753 5756 5761 5765 5769 5773 5777 5781 5785 5789 5792 5795 5798 5802 5804 5807 5809 5811 5813 5815 5817 5818 5819 5821 5822 5822 5823 5823 5823 5823 5823 5823 5822 5821 5820 5819 5818 5817 5816 5814
5694 5699 5704 5710 5715 5720 5725 5731 5739 5744 5747 5752 5756 5761 5765 5769 5773 5778 5781 5784 5788 5791 5794 5797 5800 5802 5805 5807 5809 5811 5812 5813 5814 5815 5816 5817 5817 5818 5817 5817 5817 5816 5815 5814 5813 5812 5811 5809 5808
5682 5687 5694 5701 5706 5710 5716 5724 5731 5734 5738 5743 5748 5752 5757 5761 5765 5769 5773 5776 5780 5783 5787 5790 5793 5795 5798 5800 5802 5804 5805 5807 5808 5809 5810 5811 5811 5811 5811 5811 5810 5810 5809 5808 5807 5805 5804 5802 5801
5670 5677 5685 5692 5696 5701 5706 5714 5721 5724 5729 5734 5739 5744 5748 5753 5757 5761 5765 5768 5772 5776 5779 5783 5786 5788 5791 5793 5795 5797 5799 5800 5801 5802 5803 5804 5804 5805 5805 5804 5804 5803 5802 5801 5800 5798 5797 5795 5794
5663 5670 5676 5682 5687 5692 5697 5704 5711 5714 5719 5725 5730 5735 5740 5745 5749 5752 5756 5760 5764 5768 5771 5775 5778 5781 5784 5786 5788 5790 5792 5793 5794 5795 5796 5797 5798 5798 5798 5797 5797 5796 5795 5794 5793 5791 5789 5788 5786
5653 5659 5665 5671 5676 5681 5687 5693 5699 5704 5709 5715 5721 5726 5731 5736 5740 5744 5748 5752 5756 5760 5764 5767 5770 5774 5776 5779 5781 5783 5785 5786 5787 5788 5789 5790 5790 5791 5790 5790 5789 5789 5788 5786 5785 5784 5782 5780 5778
5641 5647 5653 5659 5665 5670 5675 5681 5688 5694 5700 5706 5711 5717 5722 5726 5730 5735 5739 5743 5747 5751 5755 5759 5763 5766 5769 5771 5773 5775 5777 5779 5780 5781 5782 5782 5783 5783 5783 5782 5782 5781 5780 5778 5777 5776 5774 5772 5769
5631 5637 5643 5649 5654 5658 5664 5670 5678 5684 5690 5696 5701 5706 5711 5717 5721 5726 5730 5735 5739 5743 5747 5751 5754 5757 5760 5762 5765 5767 5769 5771 5773 5774 5774 5775 5775 5775 5775 5774 5774 5773 5771 5770 5769 5767 5765 5763 5761
5622 5628 5633 5637 5642 5647 5653 5658 5667 5674 5680 5686 5691 5697 5702 5707 5712 5716 5721 5726 5730 5734 5738 5742 5745 5748 5751 5754 5757 5759 5761 5763 5765 5766 5766 5767 5767 5767 5767 5766 5765 5764 5763 5762 5760 5758 5756 5754 5752
5613 5618 5623 5627 5631 5636 5642 5646 5656 5663 5669 5675 5682 5687 5692 5697 5702 5707 5712 5716 5721 5725 5729 5732 5736 5739 5743 5746 5748 5751 5753 5755 5756 5757 5758 5759 5759 5759 5759 5758 5757 5756 5754 5753 5751 5749 5747 5745 5742
5603 5609 5613 5617 5620 5625 5632 5636 5644 5651 5659 5665 5671 5676 5682 5687 5692 5697 5702 5706 5711 5715 5719 5723 5727 5731 5734 5737 5740 5742 5744 5746 5748 5749 5750 5750 5751 5750 5750 5749 5748 5747 5745 5744 5742 5740 5738 5735 5733
5595 5601 5605 5607 5610 5615 5622 5626 5633 5641 5648 5654 5660 5666 5671 5676 5682 5687 5692 5697 5701 5706 5710 5714 5718 5721 5725 5728 5731 5733 5735 5737 5739 5740 5741 5742 5742 5742 5741 5740 5739 5738 5736 5735 5733 5731 5728 5726 5723
5587 5593 5598 5601 5604 5608 5613 5616 5625 5631 5637 5643 5648 5654 5660 5666 5671 5677 5682 5687 5692 5696 5701 5705 5709 5712 5716 5719 5722 5724 5726 5728 5730 5731 5732 5733 5733 5733 5732 5731 5730 5729 5727 5726 5724 5722 5719 5716 5714
5579 5584 5589 5592 5595 5599 5603 5609 5615 5621 5626 5632 5637 5643 5649 5655 5661 5666 5671 5677 5682 5686 5691 5695 5699 5703 5706 5709 5712 5714 5717 5719 5721 5722 5723 5723 5723 5723 5723 5722 5721 5720 5718 5717 5715 5712 5709 5707 5704
5572 5576 5581 5584 5587 5590 5595 5600 5606 5611 5617 5622 5628 5633 5638 5644 5650 5655 5661 5666 5671 5676 5681 5685 5689 5693 5696 5699 5702 5705 5707 5709 5711 5712 5713 5714 5714 5714 5713 5713 5712 5711 5709 5708 5705 5703 5700 5697 5694
5565 5569 5572 5576 5580 5584 5588 5594 5598 5603 5608 5613 5618 5623 5628 5634 5640 5645 5651 5656 5661 5666 5671 5675 5679 5683 5686 5690 5693 5695 5698 5700 5701 5703 5704 5704 5704 5704 5704 5703 5702 5701 5700 5698 5696 5693 5690 5687 5684
5558 5562 5566 5570 5573 5577 5581 5588 5590 5594 5599 5603 5609 5614 5619 5624 5630 5635 5641 5646 5651 5656 5661 5665 5669 5673 5677 5680 5683 5685 5688 5690 5691 5693 5694 5695 5695 5695 5695 5694 5693 5692 5690 5689 5686 5684 5681 5678 5674